TimeCET,TemperatureF,Dew PointF,Humidity,Sea Level PressureIn,VisibilityMPH,Wind Direction,Wind SpeedMPH,Gust SpeedMPH,PrecipitationIn,Events,Conditions,WindDirDegrees,DateUTC
12:55 AM,12.2,12.2,100,29.65,-9999.0,ENE,16.1,-,N/A,,Clear,60,2013-03-08 23:55:00
1:00 AM,13,12,96,,6,ENE,16.1,,,Fog,Light Fog,60,2013-03-09 00:00:00
1:55 AM,14.0,5.0,67,29.65,-9999.0,ENE,15.0,-,N/A,,Clear,60,2013-03-09 00:55:00
2:55 AM,15.8,-5.8,38,29.65,-9999.0,ENE,13.8,-,N/A,,Clear,60,2013-03-09 01:55:00
3:55 AM,15.8,-2.2,45,29.62,-9999.0,Calm,Calm,-,N/A,,Clear,0,2013-03-09 02:55:00
4:00 AM,15,-2,31,,6,Calm,Calm,,,,,,2013-03-09 03:00:00
4:55 AM,15.8,-7.6,35,29.62,-9999.0,NNE,8.1,-,N/A,,Clear,20,2013-03-09 03:55:00
5:55 AM,14.0,-9.4,35,29.62,-9999.0,NE,17.3,-,N/A,,Clear,50,2013-03-09 04:55:00
6:55 AM,14.0,-13.0,29,29.62,6.2,NE,4.6,-,N/A,,Partly Cloudy,40,2013-03-09 05:55:00
7:00 AM,15,-13,13,,16,NE,4.6,,,,Scattered Clouds,40,2013-03-09 06:00:00
7:55 AM,15.8,-11.2,30,29.59,6.2,West,3.5,-,N/A,,Partly Cloudy,260,2013-03-09 06:55:00
8:55 AM,15.8,-5.8,38,29.62,6.2,SSW,9.2,-,N/A,,Mostly Cloudy,200,2013-03-09 07:55:00
9:55 AM,15.8,8.6,73,29.59,6.2,SSW,8.1,-,N/A,,Mostly Cloudy,210,2013-03-09 08:55:00
10:00 AM,17,9,61,,31,SSW,8.1,,,,Mostly Cloudy,210,2013-03-09 09:00:00
10:55 AM,17.6,14.0,86,29.59,0.5,South,5.8,-,N/A,Fog,Light Freezing Fog,180,2013-03-09 09:55:00
11:55 AM,19.4,14.0,80,29.59,0.5,South,3.5,-,N/A,Fog,Light Freezing Fog,190,2013-03-09 10:55:00
12:55 PM,23.0,15.8,74,29.59,0.5,West,4.6,-,N/A,Fog,Light Freezing Fog,260,2013-03-09 11:55:00
1:00 PM,22,15,65,,0,West,4.6,,,Fog,Heavy Fog,260,2013-03-09 12:00:00
1:55 PM,23.0,14.0,68,29.59,0.5,SW,4.6,-,N/A,Fog,Light Freezing Fog,230,2013-03-09 12:55:00
2:55 PM,17.6,6.8,63,29.56,0.5,NE,5.8,-,N/A,Fog,Light Freezing Fog,40,2013-03-09 13:55:00
3:55 PM,12.2,6.8,79,29.53,0.5,ENE,18.4,-,N/A,Fog,Light Freezing Fog,60,2013-03-09 14:55:00
4:00 PM,13,7,69,,0,ENE,18.4,,,Fog,Heavy Fog,60,2013-03-09 15:00:00
4:55 PM,12.2,10.4,92,29.53,0.3,ENE,17.3,-,N/A,Fog-Snow,Light Snow,60,2013-03-09 15:55:00
5:55 PM,12.2,10.4,92,29.53,0.5,NE,19.6,-,N/A,Fog,Light Freezing Fog,50,2013-03-09 16:55:00
6:55 PM,12.2,10.4,92,29.56,6.2,ENE,18.4,-,N/A,,Partly Cloudy,60,2013-03-09 17:55:00
7:00 PM,11,11,100,,9,ENE,18.4,,,Fog,Light Fog,60,2013-03-09 18:00:00
7:55 PM,12.2,10.4,92,29.56,6.2,ENE,18.4,-,N/A,,Partly Cloudy,60,2013-03-09 18:55:00
8:55 PM,10.4,10.4,100,29.56,-9999.0,NNE,15.0,-,N/A,,Clear,30,2013-03-09 19:55:00
9:55 PM,10.4,3.2,73,29.56,-9999.0,ENE,24.2,-,N/A,,Clear,60,2013-03-09 20:55:00
10:00 PM,11,3,57,,6,ENE,24.2,,,,,60,2013-03-09 21:00:00
10:55 PM,10.4,-0.4,62,29.56,-9999.0,NE,19.6,-,N/A,,Clear,50,2013-03-09 21:55:00
11:55 PM,12.2,-9.4,38,29.56,-9999.0,ENE,16.1,-,N/A,,Clear,70,2013-03-09 22:55:00